Year,Month,Day,Hour,Minute,Value (Times are PST for temperature in C)
2014,04,30,00,00,11.80
2014,04,30,00,01,11.80
2014,04,30,00,02,11.80
2014,04,30,00,03,11.80
2014,04,30,00,04,11.80
2014,04,30,00,05,11.80
2014,04,30,00,06,11.80
2014,04,30,00,07,11.80
2014,04,30,00,08,11.80
2014,04,30,00,09,11.80
2014,04,30,00,10,11.80
2014,04,30,00,11,11.80
2014,04,30,00,12,11.80
2014,04,30,00,13,11.80
2014,04,30,00,14,11.80
2014,04,30,00,15,11.70
2014,04,30,00,16,11.70
2014,04,30,00,17,11.70
2014,04,30,00,18,11.70
2014,04,30,00,19,11.70
2014,04,30,00,20,11.70
2014,04,30,00,21,11.70
2014,04,30,00,22,11.70
2014,04,30,00,23,11.60
2014,04,30,00,24,11.60
2014,04,30,00,25,11.60
2014,04,30,00,26,11.60
2014,04,30,00,27,11.60
2014,04,30,00,28,11.60
2014,04,30,00,29,11.50
2014,04,30,00,30,11.50
2014,04,30,00,31,11.50
2014,04,30,00,32,11.50
2014,04,30,00,33,11.50
2014,04,30,00,34,11.40
2014,04,30,00,35,11.40
2014,04,30,00,36,11.40
2014,04,30,00,37,11.40
2014,04,30,00,38,11.30
2014,04,30,00,39,11.30
2014,04,30,00,40,11.30
2014,04,30,00,41,11.30
2014,04,30,00,42,11.30
2014,04,30,00,43,11.40
2014,04,30,00,44,11.40
2014,04,30,00,45,11.40
2014,04,30,00,46,11.40
2014,04,30,00,47,11.40
2014,04,30,00,48,11.40
2014,04,30,00,49,11.40
2014,04,30,00,50,11.40
2014,04,30,00,51,11.40
2014,04,30,00,52,11.40
2014,04,30,00,53,11.40
2014,04,30,00,54,11.40
2014,04,30,00,55,11.30
2014,04,30,00,56,11.30
2014,04,30,00,57,11.30
2014,04,30,00,58,11.30
2014,04,30,00,59,11.30
2014,04,30,01,00,11.30
2014,04,30,01,01,11.30
2014,04,30,01,02,11.30
2014,04,30,01,03,11.30
2014,04,30,01,04,11.30
2014,04,30,01,05,11.40
2014,04,30,01,06,11.40
2014,04,30,01,07,11.40
2014,04,30,01,08,11.40
2014,04,30,01,09,11.40
2014,04,30,01,10,11.40
2014,04,30,01,11,11.40
2014,04,30,01,12,11.30
2014,04,30,01,13,11.30
2014,04,30,01,14,11.30
2014,04,30,01,15,11.30
2014,04,30,01,16,11.20
2014,04,30,01,17,11.20
2014,04,30,01,18,11.20
2014,04,30,01,19,11.20
2014,04,30,01,20,11.20
2014,04,30,01,21,11.20
2014,04,30,01,22,11.30
2014,04,30,01,23,11.30
2014,04,30,01,24,11.30
2014,04,30,01,25,11.20
2014,04,30,01,26,11.20
2014,04,30,01,27,11.20
2014,04,30,01,28,11.20
2014,04,30,01,29,11.20
2014,04,30,01,30,11.20
2014,04,30,01,31,11.20
2014,04,30,01,32,11.20
2014,04,30,01,33,11.20
2014,04,30,01,34,11.20
2014,04,30,01,35,11.20
2014,04,30,01,36,11.10
2014,04,30,01,37,11.10
2014,04,30,01,38,11.00
2014,04,30,01,39,11.00
2014,04,30,01,40,10.90
2014,04,30,01,41,10.90
2014,04,30,01,42,10.80
2014,04,30,01,43,10.80
2014,04,30,01,44,10.80
2014,04,30,01,45,10.80
2014,04,30,01,46,10.80
2014,04,30,01,47,10.80
2014,04,30,01,48,10.80
2014,04,30,01,49,10.80
2014,04,30,01,50,10.80
2014,04,30,01,51,10.80
2014,04,30,01,52,10.80
2014,04,30,01,53,10.70
2014,04,30,01,54,10.70
2014,04,30,01,55,10.70
2014,04,30,01,56,10.80
2014,04,30,01,57,10.80
2014,04,30,01,58,10.80
2014,04,30,01,59,10.80
2014,04,30,02,00,10.70
2014,04,30,02,01,10.70
2014,04,30,02,02,10.70
2014,04,30,02,03,10.70
2014,04,30,02,04,10.70
2014,04,30,02,05,10.60
2014,04,30,02,06,10.60
2014,04,30,02,07,10.60
2014,04,30,02,08,10.60
2014,04,30,02,09,10.50
2014,04,30,02,10,10.50
2014,04,30,02,11,10.50
2014,04,30,02,12,10.50
2014,04,30,02,13,10.50
2014,04,30,02,14,10.40
2014,04,30,02,15,10.40
2014,04,30,02,16,10.40
2014,04,30,02,17,10.40
2014,04,30,02,18,10.40
2014,04,30,02,19,10.30
2014,04,30,02,20,10.30
2014,04,30,02,21,10.30
2014,04,30,02,22,10.30
2014,04,30,02,23,10.30
2014,04,30,02,24,10.30
2014,04,30,02,25,10.30
2014,04,30,02,26,10.30
2014,04,30,02,27,10.30
2014,04,30,02,28,10.30
2014,04,30,02,29,10.30
2014,04,30,02,30,10.30
2014,04,30,02,31,10.30
2014,04,30,02,32,10.30
2014,04,30,02,33,10.30
2014,04,30,02,34,10.30
2014,04,30,02,35,10.30
2014,04,30,02,36,10.30
2014,04,30,02,37,10.30
2014,04,30,02,38,10.20
2014,04,30,02,39,10.20
2014,04,30,02,40,10.20
2014,04,30,02,41,10.20
2014,04,30,02,42,10.20
2014,04,30,02,43,10.10
2014,04,30,02,44,10.10
2014,04,30,02,45,10.10
2014,04,30,02,46,10.10
2014,04,30,02,47,10.00
2014,04,30,02,48,10.00
2014,04,30,02,49,10.00
2014,04,30,02,50,10.00
2014,04,30,02,51,9.90
2014,04,30,02,52,9.90
2014,04,30,02,53,9.90
2014,04,30,02,54,9.90
2014,04,30,02,55,10.00
2014,04,30,02,56,10.00
2014,04,30,02,57,10.00
2014,04,30,02,58,10.10
2014,04,30,02,59,10.10
2014,04,30,03,00,10.10
2014,04,30,03,01,10.10
2014,04,30,03,02,10.10
2014,04,30,03,03,10.00
2014,04,30,03,04,10.00
2014,04,30,03,05,10.00
2014,04,30,03,06,9.90
2014,04,30,03,07,9.90
2014,04,30,03,08,9.90
2014,04,30,03,09,9.80
2014,04,30,03,10,9.80
2014,04,30,03,11,9.80
2014,04,30,03,12,9.70
2014,04,30,03,13,9.70
2014,04,30,03,14,9.70
2014,04,30,03,15,9.70
2014,04,30,03,16,9.70
2014,04,30,03,17,9.70
2014,04,30,03,18,9.70
2014,04,30,03,19,9.70
2014,04,30,03,20,9.80
2014,04,30,03,21,9.80
2014,04,30,03,22,9.90
2014,04,30,03,23,9.90
2014,04,30,03,24,9.90
2014,04,30,03,25,9.90
2014,04,30,03,26,9.90
2014,04,30,03,27,9.90
2014,04,30,03,28,9.90
2014,04,30,03,29,9.80
2014,04,30,03,30,9.80
2014,04,30,03,31,9.80
2014,04,30,03,32,9.80
2014,04,30,03,33,9.70
2014,04,30,03,34,9.70
2014,04,30,03,35,9.70
2014,04,30,03,36,9.60
2014,04,30,03,37,9.60
2014,04,30,03,38,9.60
2014,04,30,03,39,9.50
2014,04,30,03,40,9.50
2014,04,30,03,41,9.50
2014,04,30,03,42,9.50
2014,04,30,03,43,9.50
2014,04,30,03,44,9.50
2014,04,30,03,45,9.50
2014,04,30,03,46,9.50
2014,04,30,03,47,9.50
2014,04,30,03,48,9.50
2014,04,30,03,49,9.50
2014,04,30,03,50,9.40
2014,04,30,03,51,9.40
2014,04,30,03,52,9.40
2014,04,30,03,53,9.40
2014,04,30,03,54,9.30
2014,04,30,03,55,9.30
2014,04,30,03,56,9.30
2014,04,30,03,57,9.30
2014,04,30,03,58,9.30
2014,04,30,03,59,9.30
2014,04,30,04,00,9.30
2014,04,30,04,01,9.30
2014,04,30,04,02,9.30
2014,04,30,04,03,9.30
2014,04,30,04,04,9.30
2014,04,30,04,05,9.30
2014,04,30,04,06,9.30
2014,04,30,04,07,9.30
2014,04,30,04,08,9.20
2014,04,30,04,09,9.20
2014,04,30,04,10,9.20
2014,04,30,04,11,9.20
2014,04,30,04,12,9.10
2014,04,30,04,13,9.10
2014,04,30,04,14,9.10
2014,04,30,04,15,9.10
2014,04,30,04,16,9.00
2014,04,30,04,17,9.00
2014,04,30,04,18,9.00
2014,04,30,04,19,9.00
2014,04,30,04,20,9.00
2014,04,30,04,21,9.00
2014,04,30,04,22,8.90
2014,04,30,04,23,8.90
2014,04,30,04,24,8.90
2014,04,30,04,25,8.90
2014,04,30,04,26,8.90
2014,04,30,04,27,8.80
2014,04,30,04,28,8.80
2014,04,30,04,29,8.80
2014,04,30,04,30,8.80
2014,04,30,04,31,8.80
2014,04,30,04,32,8.70
2014,04,30,04,33,8.70
2014,04,30,04,34,8.70
2014,04,30,04,35,8.70
2014,04,30,04,36,8.60
2014,04,30,04,37,8.60
2014,04,30,04,38,8.60
2014,04,30,04,39,8.60
2014,04,30,04,40,8.60
2014,04,30,04,41,8.60
2014,04,30,04,42,8.60
2014,04,30,04,43,8.60
2014,04,30,04,44,8.60
2014,04,30,04,45,8.60
2014,04,30,04,46,8.60
2014,04,30,04,47,8.60
2014,04,30,04,48,8.60
2014,04,30,04,49,8.60
2014,04,30,04,50,8.70
2014,04,30,04,51,8.70
2014,04,30,04,52,8.70
2014,04,30,04,53,8.80
2014,04,30,04,54,8.80
2014,04,30,04,55,8.80
2014,04,30,04,56,8.80
2014,04,30,04,57,8.80
2014,04,30,04,58,8.80
2014,04,30,04,59,8.80
2014,04,30,05,00,8.80
2014,04,30,05,01,8.80
2014,04,30,05,02,8.80
2014,04,30,05,03,8.80
2014,04,30,05,04,8.80
2014,04,30,05,05,8.80
2014,04,30,05,06,8.80
2014,04,30,05,07,8.80
2014,04,30,05,08,8.80
2014,04,30,05,09,8.70
2014,04,30,05,10,8.70
2014,04,30,05,11,8.70
2014,04,30,05,12,8.70
2014,04,30,05,13,8.60
2014,04,30,05,14,8.60
2014,04,30,05,15,8.50
2014,04,30,05,16,8.50
2014,04,30,05,17,8.50
2014,04,30,05,18,8.40
2014,04,30,05,19,8.40
2014,04,30,05,20,8.40
2014,04,30,05,21,8.40
2014,04,30,05,22,8.40
2014,04,30,05,23,8.40
2014,04,30,05,24,8.50
2014,04,30,05,25,8.50
2014,04,30,05,26,8.50
2014,04,30,05,27,8.50
2014,04,30,05,28,8.50
2014,04,30,05,29,8.50
2014,04,30,05,30,8.50
2014,04,30,05,31,8.50
2014,04,30,05,32,8.40
2014,04,30,05,33,8.40
2014,04,30,05,34,8.40
2014,04,30,05,35,8.40
2014,04,30,05,36,8.40
2014,04,30,05,37,8.40
2014,04,30,05,38,8.30
2014,04,30,05,39,8.30
2014,04,30,05,40,8.40
2014,04,30,05,41,8.40
2014,04,30,05,42,8.40
2014,04,30,05,43,8.40
2014,04,30,05,44,8.40
2014,04,30,05,45,8.40
2014,04,30,05,46,8.40
2014,04,30,05,47,8.40
2014,04,30,05,48,8.40
2014,04,30,05,49,8.30
2014,04,30,05,50,8.30
2014,04,30,05,51,8.30
2014,04,30,05,52,8.30
2014,04,30,05,53,8.30
2014,04,30,05,54,8.30
2014,04,30,05,55,8.30
2014,04,30,05,56,8.40
2014,04,30,05,57,8.40
2014,04,30,05,58,8.40
2014,04,30,05,59,8.40
2014,04,30,06,00,8.40
2014,04,30,06,01,8.40
2014,04,30,06,02,8.40
2014,04,30,06,03,8.50
2014,04,30,06,04,8.50
2014,04,30,06,05,8.50
2014,04,30,06,06,8.50
2014,04,30,06,07,8.60
2014,04,30,06,08,8.60
2014,04,30,06,09,8.60
2014,04,30,06,10,8.60
2014,04,30,06,11,8.60
2014,04,30,06,12,8.60
2014,04,30,06,13,8.60
2014,04,30,06,14,8.60
2014,04,30,06,15,8.50
2014,04,30,06,16,8.50
2014,04,30,06,17,8.50
2014,04,30,06,18,8.50
2014,04,30,06,19,8.60
2014,04,30,06,20,8.60
2014,04,30,06,21,8.60
2014,04,30,06,22,8.60
2014,04,30,06,23,8.60
2014,04,30,06,24,8.60
2014,04,30,06,25,8.60
2014,04,30,06,26,8.60
2014,04,30,06,27,8.60
2014,04,30,06,28,8.60
2014,04,30,06,29,8.60
2014,04,30,06,30,8.70
2014,04,30,06,31,8.70
2014,04,30,06,32,8.70
2014,04,30,06,33,8.70
2014,04,30,06,34,8.70
2014,04,30,06,35,8.80
2014,04,30,06,36,8.80
2014,04,30,06,37,8.80
2014,04,30,06,38,8.90
2014,04,30,06,39,8.90
2014,04,30,06,40,9.00
2014,04,30,06,41,9.00
2014,04,30,06,42,9.10
2014,04,30,06,43,9.10
2014,04,30,06,44,9.20
2014,04,30,06,45,9.20
2014,04,30,06,46,9.20
2014,04,30,06,47,9.30
2014,04,30,06,48,9.30
2014,04,30,06,49,9.30
2014,04,30,06,50,9.40
2014,04,30,06,51,9.40
2014,04,30,06,52,9.40
2014,04,30,06,53,9.40
2014,04,30,06,54,9.50
2014,04,30,06,55,9.50
2014,04,30,06,56,9.60
2014,04,30,06,57,9.60
2014,04,30,06,58,9.60
2014,04,30,06,59,9.70
2014,04,30,07,00,9.70
2014,04,30,07,01,9.70
2014,04,30,07,02,9.80
2014,04,30,07,03,9.80
2014,04,30,07,04,9.80
2014,04,30,07,05,9.80
2014,04,30,07,06,9.90
2014,04,30,07,07,9.90
2014,04,30,07,08,9.90
2014,04,30,07,09,9.90
2014,04,30,07,10,9.90
2014,04,30,07,11,9.90
2014,04,30,07,12,9.90
2014,04,30,07,13,9.90
2014,04,30,07,14,10.00
2014,04,30,07,15,10.00
2014,04,30,07,16,10.00
2014,04,30,07,17,10.00
2014,04,30,07,18,10.00
2014,04,30,07,19,10.00
2014,04,30,07,20,10.00
2014,04,30,07,21,10.00
2014,04,30,07,22,10.10
2014,04,30,07,23,10.10
2014,04,30,07,24,10.10
2014,04,30,07,25,10.10
2014,04,30,07,26,10.10
2014,04,30,07,27,10.10
2014,04,30,07,28,10.20
2014,04,30,07,29,10.20
2014,04,30,07,30,10.20
2014,04,30,07,31,10.20
2014,04,30,07,32,10.30
2014,04,30,07,33,10.30
2014,04,30,07,34,10.30
2014,04,30,07,35,10.40
2014,04,30,07,36,10.40
2014,04,30,07,37,10.40
2014,04,30,07,38,10.40
2014,04,30,07,39,10.50
2014,04,30,07,40,10.50
2014,04,30,07,41,10.50
2014,04,30,07,42,10.60
2014,04,30,07,43,10.60
2014,04,30,07,44,10.60
2014,04,30,07,45,10.60
2014,04,30,07,46,10.60
2014,04,30,07,47,10.70
2014,04,30,07,48,10.70
2014,04,30,07,49,10.80
2014,04,30,07,50,10.80
2014,04,30,07,51,10.80
2014,04,30,07,52,10.90
2014,04,30,07,53,10.90
2014,04,30,07,54,11.00
2014,04,30,07,55,11.00
2014,04,30,07,56,11.10
2014,04,30,07,57,11.10
2014,04,30,07,58,11.20
2014,04,30,07,59,11.20
2014,04,30,08,00,11.20
2014,04,30,08,01,11.30
2014,04,30,08,02,11.30
2014,04,30,08,03,11.30
2014,04,30,08,04,11.30
2014,04,30,08,05,11.30
2014,04,30,08,06,11.40
2014,04,30,08,07,11.40
2014,04,30,08,08,11.40
2014,04,30,08,09,11.50
2014,04,30,08,10,11.50
2014,04,30,08,11,11.50
2014,04,30,08,12,11.60
2014,04,30,08,13,11.60
2014,04,30,08,14,11.60
2014,04,30,08,15,11.70
2014,04,30,08,16,11.70
2014,04,30,08,17,11.80
2014,04,30,08,18,11.80
2014,04,30,08,19,11.80
2014,04,30,08,20,11.80
2014,04,30,08,21,11.90
2014,04,30,08,22,11.90
2014,04,30,08,23,12.00
2014,04,30,08,24,12.10
2014,04,30,08,25,12.10
2014,04,30,08,26,12.20
2014,04,30,08,27,12.30
2014,04,30,08,28,12.30
2014,04,30,08,29,12.40
2014,04,30,08,30,12.50
2014,04,30,08,31,12.60
2014,04,30,08,32,12.70
2014,04,30,08,33,12.80
2014,04,30,08,34,12.90
2014,04,30,08,35,13.00
2014,04,30,08,36,13.10
2014,04,30,08,37,13.20
2014,04,30,08,38,13.30
2014,04,30,08,39,13.40
2014,04,30,08,40,13.50
2014,04,30,08,41,13.60
2014,04,30,08,42,13.70
2014,04,30,08,43,13.70
2014,04,30,08,44,13.70
2014,04,30,08,45,13.70
2014,04,30,08,46,13.80
2014,04,30,08,47,13.80
2014,04,30,08,48,13.80
2014,04,30,08,49,13.90
2014,04,30,08,50,13.90
2014,04,30,08,51,13.90
2014,04,30,08,52,13.90
2014,04,30,08,53,13.90
2014,04,30,08,54,13.90
2014,04,30,08,55,13.90
2014,04,30,08,56,13.80
2014,04,30,08,57,13.80
2014,04,30,08,58,13.80
2014,04,30,08,59,13.80
2014,04,30,09,00,13.80
2014,04,30,09,01,13.80
2014,04,30,09,02,13.80
2014,04,30,09,03,13.80
2014,04,30,09,04,13.90
2014,04,30,09,05,14.00
2014,04,30,09,06,14.10
2014,04,30,09,07,14.10
2014,04,30,09,08,14.20
2014,04,30,09,09,14.30
2014,04,30,09,10,14.40
2014,04,30,09,11,14.40
2014,04,30,09,12,14.50
2014,04,30,09,13,14.60
2014,04,30,09,14,14.70
2014,04,30,09,15,14.70
2014,04,30,09,16,14.70
2014,04,30,09,17,14.80
2014,04,30,09,18,14.80
2014,04,30,09,19,14.80
2014,04,30,09,20,14.80
2014,04,30,09,21,14.90
2014,04,30,09,22,14.90
2014,04,30,09,23,14.90
2014,04,30,09,24,14.90
2014,04,30,09,25,14.90
2014,04,30,09,26,14.90
2014,04,30,09,27,14.90
2014,04,30,09,28,14.80
2014,04,30,09,29,14.80
2014,04,30,09,30,14.90
2014,04,30,09,31,15.00
2014,04,30,09,32,15.00
2014,04,30,09,33,15.10
2014,04,30,09,34,15.10
2014,04,30,09,35,15.10
2014,04,30,09,36,15.10
2014,04,30,09,37,15.10
2014,04,30,09,38,15.00
2014,04,30,09,39,15.00
2014,04,30,09,40,14.90
2014,04,30,09,41,14.90
2014,04,30,09,42,14.90
2014,04,30,09,43,14.90
2014,04,30,09,44,15.00
2014,04,30,09,45,15.00
2014,04,30,09,46,15.10
2014,04,30,09,47,15.10
2014,04,30,09,48,15.20
2014,04,30,09,49,15.20
2014,04,30,09,50,15.30
2014,04,30,09,51,15.40
2014,04,30,09,52,15.50
2014,04,30,09,53,15.60
2014,04,30,09,54,15.80
2014,04,30,09,55,16.00
2014,04,30,09,56,16.10
2014,04,30,09,57,16.10
2014,04,30,09,58,16.20
2014,04,30,09,59,16.30
2014,04,30,10,00,16.40
2014,04,30,10,01,16.40
2014,04,30,10,02,16.40
2014,04,30,10,03,16.40
2014,04,30,10,04,16.40
2014,04,30,10,05,16.50
2014,04,30,10,06,16.60
2014,04,30,10,07,16.60
2014,04,30,10,08,16.70
2014,04,30,10,09,16.70
2014,04,30,10,10,16.70
2014,04,30,10,11,16.80
2014,04,30,10,12,16.80
2014,04,30,10,13,16.80
2014,04,30,10,14,16.90
2014,04,30,10,15,16.90
2014,04,30,10,16,17.00
2014,04,30,10,17,17.00
2014,04,30,10,18,17.10
2014,04,30,10,19,17.10
2014,04,30,10,20,17.10
2014,04,30,10,21,17.10
2014,04,30,10,22,17.10
2014,04,30,10,23,17.10
2014,04,30,10,24,17.20
2014,04,30,10,25,17.20
2014,04,30,10,26,17.20
2014,04,30,10,27,17.10
2014,04,30,10,28,17.10
2014,04,30,10,29,17.10
2014,04,30,10,30,17.10
2014,04,30,10,31,17.10
2014,04,30,10,32,17.20
2014,04,30,10,33,17.20
2014,04,30,10,34,17.30
2014,04,30,10,35,17.30
2014,04,30,10,36,17.30
2014,04,30,10,37,17.40
2014,04,30,10,38,17.40
2014,04,30,10,39,17.30
2014,04,30,10,40,17.20
2014,04,30,10,41,17.20
2014,04,30,10,42,17.20
2014,04,30,10,43,17.20
2014,04,30,10,44,17.20
2014,04,30,10,45,17.20
2014,04,30,10,46,17.30
2014,04,30,10,47,17.30
2014,04,30,10,48,17.40
2014,04,30,10,49,17.40
2014,04,30,10,50,17.50
2014,04,30,10,51,17.60
2014,04,30,10,52,17.60
2014,04,30,10,53,17.70
2014,04,30,10,54,17.70
2014,04,30,10,55,17.60
2014,04,30,10,56,17.60
2014,04,30,10,57,17.60
2014,04,30,10,58,17.60
2014,04,30,10,59,17.60
2014,04,30,11,00,17.60
2014,04,30,11,01,17.60
2014,04,30,11,02,17.70
2014,04,30,11,03,17.70
2014,04,30,11,04,17.70
2014,04,30,11,05,17.80
2014,04,30,11,06,17.80
2014,04,30,11,07,17.70
2014,04,30,11,08,17.70
2014,04,30,11,09,17.60
2014,04,30,11,10,17.50
2014,04,30,11,11,17.40
2014,04,30,11,12,17.30
2014,04,30,11,13,17.30
2014,04,30,11,14,17.30
2014,04,30,11,15,17.40
2014,04,30,11,16,17.40
2014,04,30,11,17,17.50
2014,04,30,11,18,17.50
2014,04,30,11,19,17.60
2014,04,30,11,20,17.80
2014,04,30,11,21,17.90
2014,04,30,11,22,18.00
2014,04,30,11,23,18.10
2014,04,30,11,24,18.00
2014,04,30,11,25,17.90
2014,04,30,11,26,17.90
2014,04,30,11,27,17.90
2014,04,30,11,28,18.00
2014,04,30,11,29,18.00
2014,04,30,11,30,18.20
2014,04,30,11,31,18.30
2014,04,30,11,32,18.40
2014,04,30,11,33,18.40
2014,04,30,11,34,18.30
2014,04,30,11,35,18.30
2014,04,30,11,36,18.30
2014,04,30,11,37,18.30
2014,04,30,11,38,18.30
2014,04,30,11,39,18.50
2014,04,30,11,40,18.60
2014,04,30,11,41,18.80
2014,04,30,11,42,18.70
2014,04,30,11,43,18.70
2014,04,30,11,44,18.80
2014,04,30,11,45,18.80
2014,04,30,11,46,18.80
2014,04,30,11,47,18.80
2014,04,30,11,48,18.70
2014,04,30,11,49,18.70
2014,04,30,11,50,18.70
2014,04,30,11,51,18.70
2014,04,30,11,52,18.60
2014,04,30,11,53,18.60
2014,04,30,11,54,18.50
2014,04,30,11,55,18.50
2014,04,30,11,56,18.50
2014,04,30,11,57,18.60
2014,04,30,11,58,18.60
2014,04,30,11,59,18.70
2014,04,30,12,00,18.70
2014,04,30,12,01,18.70
2014,04,30,12,02,18.80
2014,04,30,12,03,18.70
2014,04,30,12,04,18.60
2014,04,30,12,05,18.60
2014,04,30,12,06,18.50
2014,04,30,12,07,18.40
2014,04,30,12,08,18.30
2014,04,30,12,09,18.40
2014,04,30,12,10,18.50
2014,04,30,12,11,18.60
2014,04,30,12,12,18.50
2014,04,30,12,13,18.40
2014,04,30,12,14,18.40
2014,04,30,12,15,18.40
2014,04,30,12,16,18.40
2014,04,30,12,17,18.30
2014,04,30,12,18,18.30
2014,04,30,12,19,18.40
2014,04,30,12,20,18.50
2014,04,30,12,21,18.70
2014,04,30,12,22,18.70
2014,04,30,12,23,18.80
2014,04,30,12,24,18.80
2014,04,30,12,25,18.90
2014,04,30,12,26,18.90
2014,04,30,12,27,19.00
2014,04,30,12,28,19.10
2014,04,30,12,29,19.20
2014,04,30,12,30,19.20
2014,04,30,12,31,19.30
2014,04,30,12,32,19.20
2014,04,30,12,33,19.20
2014,04,30,12,34,19.20
2014,04,30,12,35,19.10
2014,04,30,12,36,19.10
2014,04,30,12,37,19.10
2014,04,30,12,38,19.20
2014,04,30,12,39,19.30
2014,04,30,12,40,19.40
2014,04,30,12,41,19.40
2014,04,30,12,42,19.50
2014,04,30,12,43,19.50
2014,04,30,12,44,19.40
2014,04,30,12,45,19.40
2014,04,30,12,46,19.50
2014,04,30,12,47,19.40
2014,04,30,12,48,19.40
2014,04,30,12,49,19.30
2014,04,30,12,50,19.20
2014,04,30,12,51,19.30
2014,04,30,12,52,19.30
2014,04,30,12,53,19.30
2014,04,30,12,54,19.40
2014,04,30,12,55,19.50
2014,04,30,12,56,19.60
2014,04,30,12,57,19.60
2014,04,30,12,58,19.60
2014,04,30,12,59,19.50
2014,04,30,13,00,19.40
2014,04,30,13,01,19.30
2014,04,30,13,02,19.20
2014,04,30,13,03,19.20
2014,04,30,13,04,19.20
2014,04,30,13,05,19.20
2014,04,30,13,06,19.30
2014,04,30,13,07,19.40
2014,04,30,13,08,19.40
2014,04,30,13,09,19.40
2014,04,30,13,10,19.50
2014,04,30,13,11,19.50
2014,04,30,13,12,19.60
2014,04,30,13,13,19.70
2014,04,30,13,14,19.70
2014,04,30,13,15,19.80
2014,04,30,13,16,19.80
2014,04,30,13,17,19.90
2014,04,30,13,18,20.00
2014,04,30,13,19,20.00
2014,04,30,13,20,20.10
2014,04,30,13,21,20.10
2014,04,30,13,22,20.00
2014,04,30,13,23,20.00
2014,04,30,13,24,19.90
2014,04,30,13,25,19.80
2014,04,30,13,26,19.80
2014,04,30,13,27,19.80
2014,04,30,13,28,19.90
2014,04,30,13,29,20.00
2014,04,30,13,30,20.20
2014,04,30,13,31,20.40
2014,04,30,13,32,20.40
2014,04,30,13,33,20.30
2014,04,30,13,34,20.30
2014,04,30,13,35,20.20
2014,04,30,13,36,20.30
2014,04,30,13,37,20.30
2014,04,30,13,38,20.30
2014,04,30,13,39,20.40
2014,04,30,13,40,20.50
2014,04,30,13,41,20.50
2014,04,30,13,42,20.60
2014,04,30,13,43,20.60
2014,04,30,13,44,20.60
2014,04,30,13,45,20.60
2014,04,30,13,46,20.70
2014,04,30,13,47,20.70
2014,04,30,13,48,20.70
2014,04,30,13,49,20.70
2014,04,30,13,50,20.70
2014,04,30,13,51,20.80
2014,04,30,13,52,20.80
2014,04,30,13,53,20.80
2014,04,30,13,54,20.80
2014,04,30,13,55,20.90
2014,04,30,13,56,21.00
2014,04,30,13,57,21.00
2014,04,30,13,58,21.00
2014,04,30,13,59,20.90
2014,04,30,14,00,21.00
2014,04,30,14,01,21.10
2014,04,30,14,02,21.00
2014,04,30,14,03,20.90
2014,04,30,14,04,20.90
2014,04,30,14,05,20.80
2014,04,30,14,06,20.80
2014,04,30,14,07,20.80
2014,04,30,14,08,20.80
2014,04,30,14,09,20.70
2014,04,30,14,10,20.70
2014,04,30,14,11,20.80
2014,04,30,14,12,20.80
2014,04,30,14,13,20.80
2014,04,30,14,14,20.80
2014,04,30,14,15,20.80
2014,04,30,14,16,20.90
2014,04,30,14,17,20.80
2014,04,30,14,18,20.80
2014,04,30,14,19,20.80
2014,04,30,14,20,20.90
2014,04,30,14,21,21.00
2014,04,30,14,22,21.20
2014,04,30,14,23,21.30
2014,04,30,14,24,21.30
2014,04,30,14,25,21.30
2014,04,30,14,26,21.20
2014,04,30,14,27,21.20
2014,04,30,14,28,21.20
2014,04,30,14,29,21.20
2014,04,30,14,30,21.30
2014,04,30,14,31,21.40
2014,04,30,14,32,21.30
2014,04,30,14,33,21.20
2014,04,30,14,34,21.10
2014,04,30,14,35,21.00
2014,04,30,14,36,21.00
2014,04,30,14,37,21.00
2014,04,30,14,38,21.00
2014,04,30,14,39,21.00
2014,04,30,14,40,21.00
2014,04,30,14,41,21.10
2014,04,30,14,42,21.10
2014,04,30,14,43,21.10
2014,04,30,14,44,21.10
2014,04,30,14,45,21.20
2014,04,30,14,46,21.20
2014,04,30,14,47,21.20
2014,04,30,14,48,21.10
2014,04,30,14,49,21.00
2014,04,30,14,50,21.00
2014,04,30,14,51,21.00
2014,04,30,14,52,21.00
2014,04,30,14,53,21.00
2014,04,30,14,54,21.20
2014,04,30,14,55,21.40
2014,04,30,14,56,21.50
2014,04,30,14,57,21.60
2014,04,30,14,58,21.60
2014,04,30,14,59,21.50
2014,04,30,15,00,21.50
2014,04,30,15,01,21.40
2014,04,30,15,02,21.40
2014,04,30,15,03,21.50
2014,04,30,15,04,21.50
2014,04,30,15,05,21.50
2014,04,30,15,06,21.50
2014,04,30,15,07,21.50
2014,04,30,15,08,21.50
2014,04,30,15,09,21.40
2014,04,30,15,10,21.40
2014,04,30,15,11,21.30
2014,04,30,15,12,21.30
2014,04,30,15,13,21.30
2014,04,30,15,14,21.30
2014,04,30,15,15,21.30
2014,04,30,15,16,21.30
2014,04,30,15,17,21.30
2014,04,30,15,18,21.30
2014,04,30,15,19,21.40
2014,04,30,15,20,21.40
2014,04,30,15,21,21.50
2014,04,30,15,22,21.60
2014,04,30,15,23,21.70
2014,04,30,15,24,21.70
2014,04,30,15,25,21.80
2014,04,30,15,26,21.80
2014,04,30,15,27,21.80
2014,04,30,15,28,21.80
2014,04,30,15,29,21.90
2014,04,30,15,30,22.00
2014,04,30,15,31,22.00
2014,04,30,15,32,22.10
2014,04,30,15,33,22.10
2014,04,30,15,34,22.20
2014,04,30,15,35,22.30
2014,04,30,15,36,22.50
2014,04,30,15,37,22.70
2014,04,30,15,38,22.70
2014,04,30,15,39,22.80
2014,04,30,15,40,22.90
2014,04,30,15,41,23.00
2014,04,30,15,42,23.00
2014,04,30,15,43,23.00
2014,04,30,15,44,23.00
2014,04,30,15,45,22.80
2014,04,30,15,46,22.70
2014,04,30,15,47,22.60
2014,04,30,15,48,22.40
2014,04,30,15,49,22.30
2014,04,30,15,50,22.30
2014,04,30,15,51,22.20
2014,04,30,15,52,22.20
2014,04,30,15,53,22.30
2014,04,30,15,54,22.30
2014,04,30,15,55,22.30
2014,04,30,15,56,22.20
2014,04,30,15,57,22.10
2014,04,30,15,58,22.10
2014,04,30,15,59,22.10
2014,04,30,16,00,22.10
2014,04,30,16,01,22.10
2014,04,30,16,02,22.00
2014,04,30,16,03,22.00
2014,04,30,16,04,21.90
2014,04,30,16,05,21.90
2014,04,30,16,06,21.90
2014,04,30,16,07,21.90
2014,04,30,16,08,21.90
2014,04,30,16,09,22.00
2014,04,30,16,10,22.00
2014,04,30,16,11,22.00
2014,04,30,16,12,22.10
2014,04,30,16,13,22.10
2014,04,30,16,14,22.20
2014,04,30,16,15,22.20
2014,04,30,16,16,22.30
2014,04,30,16,17,22.30
2014,04,30,16,18,22.30
2014,04,30,16,19,22.30
2014,04,30,16,20,22.40
2014,04,30,16,21,22.40
2014,04,30,16,22,22.40
2014,04,30,16,23,22.30
2014,04,30,16,24,22.20
2014,04,30,16,25,22.20
2014,04,30,16,26,22.30
2014,04,30,16,27,22.40
2014,04,30,16,28,22.50
2014,04,30,16,29,22.50
2014,04,30,16,30,22.40
2014,04,30,16,31,22.40
2014,04,30,16,32,22.30
2014,04,30,16,33,22.20
2014,04,30,16,34,22.10
2014,04,30,16,35,22.10
2014,04,30,16,36,22.10
2014,04,30,16,37,22.10
2014,04,30,16,38,22.10
2014,04,30,16,39,22.20
2014,04,30,16,40,22.30
2014,04,30,16,41,22.40
2014,04,30,16,42,22.40
2014,04,30,16,43,22.50
2014,04,30,16,44,22.50
2014,04,30,16,45,22.60
2014,04,30,16,46,22.50
2014,04,30,16,47,22.50
2014,04,30,16,48,22.50
2014,04,30,16,49,22.50
2014,04,30,16,50,22.60
2014,04,30,16,51,22.60
2014,04,30,16,52,22.60
2014,04,30,16,53,22.70
2014,04,30,16,54,22.70
2014,04,30,16,55,22.80
2014,04,30,16,56,22.80
2014,04,30,16,57,22.80
2014,04,30,16,58,22.90
2014,04,30,16,59,23.00
2014,04,30,17,00,23.10
2014,04,30,17,01,23.20
2014,04,30,17,02,23.30
2014,04,30,17,03,23.30
2014,04,30,17,04,23.30
2014,04,30,17,05,23.20
2014,04,30,17,06,23.10
2014,04,30,17,07,23.10
2014,04,30,17,08,23.00
2014,04,30,17,09,22.90
2014,04,30,17,10,22.90
2014,04,30,17,11,22.90
2014,04,30,17,12,22.90
2014,04,30,17,13,22.80
2014,04,30,17,14,22.70
2014,04,30,17,15,22.60
2014,04,30,17,16,22.70
2014,04,30,17,17,22.70
2014,04,30,17,18,22.80
2014,04,30,17,19,22.80
2014,04,30,17,20,22.80
2014,04,30,17,21,22.70
2014,04,30,17,22,22.60
2014,04,30,17,23,22.60
2014,04,30,17,24,22.50
2014,04,30,17,25,22.60
2014,04,30,17,26,22.60
2014,04,30,17,27,22.60
2014,04,30,17,28,22.60
2014,04,30,17,29,22.60
2014,04,30,17,30,22.60